Location: Pacheco
(37.9835°N, 122.0752°W)
Time: 09:20:29
(UTC+00:00)

Cosmos 1553 Rocket - Visible Passes

Search period start: 24 July 2024 00:00
Search period end: 03 August 2024 00:00
Orbit: 942 x 1006 km, 82.9° (Epoch: 23 July)

Date Brightness Start Highest point End Pass type
(mag) Time Alt. Az. Time Alt. Az. Time Alt. Az.
24 Jul 6.1 12:01:12 10° SE 12:06:19 28° E 12:11:31 10° NNE visible
25 Jul 5.0 12:25:06 10° SSE 12:31:04 51° E 12:37:10 10° NNE visible
26 Jul 6.8 11:09:35 10° E 11:11:39 12° E 11:13:44 10° ENE visible
27 Jul 6.2 11:31:28 10° SE 11:36:11 23° E 11:40:59 10° NE visible
28 Jul 5.2 11:55:05 10° SSE 12:00:53 43° E 12:06:49 10° NNE visible
29 Jul 4.2 12:19:32 10° S 12:25:45 79° E 12:32:08 10° N visible
30 Jul 6.4 11:01:50 10° SE 11:06:04 19° E 11:10:21 10° NE visible
31 Jul 5.5 11:25:08 10° SSE 11:30:43 36° E 11:36:25 10° NNE visible
01 Aug 4.4 11:49:22 10° S 11:55:33 66° E 12:01:52 10° NNE visible
02 Aug 6.4 10:32:23 10° ESE 10:35:59 16° E 10:39:35 10° NE visible
02 Aug 4.0 12:14:18 10° SSW 12:20:32 70° W 12:26:55 10° N visible
